Tracking 29089 objects as of 12-Jul-2024
HD Live streaming from Space Station
objects crossing your sky now

SSU 1

Track SSU 1 now!
10-day predictions
SSU 1 is classified as:


NORAD ID: 8835
Int'l Code: 1976-038C
Perigee: 626.3 km
Apogee: 1,299.4 km
Inclination: 63.4 °
Period: 104.2 minutes
Semi major axis: 7333 km
RCS: Unknown
Launch date: April 30, 1976
Source: United States (US)
Launch site: AIR FORCE WESTERN TEST RANGE (AFWTR)
Your satellite tracking list
Your tracking list is empty




NASA's NSSDC Master Catalog

Two Line Element Set (TLE):
1 08835U 76038C   24193.72467955  .00000441  00000-0  22883-3 0  9997
2 08835  63.3537  44.1463 0458887 170.8553 190.1224 13.82305999261269
Source of the keplerian elements: McCants